Year,Month,Day,Hour,Minute,Value (Times are PST for barometer in hPa)
2015,02,06,00,00,988.68
2015,02,06,00,01,988.64
2015,02,06,00,02,988.56
2015,02,06,00,03,988.49
2015,02,06,00,04,988.51
2015,02,06,00,05,988.56
2015,02,06,00,06,988.62
2015,02,06,00,07,988.67
2015,02,06,00,08,988.61
2015,02,06,00,09,988.59
2015,02,06,00,10,988.56
2015,02,06,00,11,988.49
2015,02,06,00,12,988.47
2015,02,06,00,13,988.41
2015,02,06,00,14,988.42
2015,02,06,00,15,988.53
2015,02,06,00,16,988.67
2015,02,06,00,17,988.82
2015,02,06,00,18,988.90
2015,02,06,00,19,988.92
2015,02,06,00,20,988.88
2015,02,06,00,21,988.87
2015,02,06,00,22,988.88
2015,02,06,00,23,988.83
2015,02,06,00,24,988.76
2015,02,06,00,25,988.75
2015,02,06,00,26,988.73
2015,02,06,00,27,988.75
2015,02,06,00,28,988.70
2015,02,06,00,29,988.67
2015,02,06,00,30,988.68
2015,02,06,00,31,988.69
2015,02,06,00,32,988.76
2015,02,06,00,33,988.76
2015,02,06,00,34,988.74
2015,02,06,00,35,988.70
2015,02,06,00,36,988.72
2015,02,06,00,37,988.70
2015,02,06,00,38,988.69
2015,02,06,00,39,988.76
2015,02,06,00,40,988.77
2015,02,06,00,41,988.80
2015,02,06,00,42,988.84
2015,02,06,00,43,988.84
2015,02,06,00,44,988.77
2015,02,06,00,45,988.72
2015,02,06,00,46,988.73
2015,02,06,00,47,988.77
2015,02,06,00,48,988.80
2015,02,06,00,49,988.83
2015,02,06,00,50,988.81
2015,02,06,00,51,988.75
2015,02,06,00,52,988.72
2015,02,06,00,53,988.70
2015,02,06,00,54,988.65
2015,02,06,00,55,988.61
2015,02,06,00,56,988.58
2015,02,06,00,57,988.55
2015,02,06,00,58,988.56
2015,02,06,00,59,988.57
2015,02,06,01,00,988.51
2015,02,06,01,01,988.50
2015,02,06,01,02,988.52
2015,02,06,01,03,988.53
2015,02,06,01,04,988.57
2015,02,06,01,05,988.59
2015,02,06,01,06,988.52
2015,02,06,01,07,988.52
2015,02,06,01,08,988.54
2015,02,06,01,09,988.56
2015,02,06,01,10,988.48
2015,02,06,01,11,988.46
2015,02,06,01,12,988.48
2015,02,06,01,13,988.46
2015,02,06,01,14,988.49
2015,02,06,01,15,988.51
2015,02,06,01,16,988.57
2015,02,06,01,17,988.59
2015,02,06,01,18,988.51
2015,02,06,01,19,988.46
2015,02,06,01,20,988.40
2015,02,06,01,21,988.44
2015,02,06,01,22,988.52
2015,02,06,01,23,988.60
2015,02,06,01,24,988.65
2015,02,06,01,25,988.70
2015,02,06,01,26,988.64
2015,02,06,01,27,988.59
2015,02,06,01,28,988.56
2015,02,06,01,29,988.47
2015,02,06,01,30,988.44
2015,02,06,01,31,988.49
2015,02,06,01,32,988.53
2015,02,06,01,33,988.61
2015,02,06,01,34,988.60
2015,02,06,01,35,988.62
2015,02,06,01,36,988.62
2015,02,06,01,37,988.61
2015,02,06,01,38,988.60
2015,02,06,01,39,988.64
2015,02,06,01,40,988.68
2015,02,06,01,41,988.66
2015,02,06,01,42,988.64
2015,02,06,01,43,988.63
2015,02,06,01,44,988.72
2015,02,06,01,45,988.72
2015,02,06,01,46,988.76
2015,02,06,01,47,988.86
2015,02,06,01,48,988.85
2015,02,06,01,49,988.85
2015,02,06,01,50,988.90
2015,02,06,01,51,988.91
2015,02,06,01,52,988.83
2015,02,06,01,53,988.75
2015,02,06,01,54,988.73
2015,02,06,01,55,988.77
2015,02,06,01,56,988.78
2015,02,06,01,57,988.78
2015,02,06,01,58,988.82
2015,02,06,01,59,988.76
2015,02,06,02,00,988.68
2015,02,06,02,01,988.64
2015,02,06,02,02,988.58
2015,02,06,02,03,988.54
2015,02,06,02,04,988.52
2015,02,06,02,05,988.52
2015,02,06,02,06,988.50
2015,02,06,02,07,988.43
2015,02,06,02,08,988.38
2015,02,06,02,09,988.35
2015,02,06,02,10,988.38
2015,02,06,02,11,988.45
2015,02,06,02,12,988.47
2015,02,06,02,13,988.52
2015,02,06,02,14,988.55
2015,02,06,02,15,988.61
2015,02,06,02,16,988.59
2015,02,06,02,17,988.58
2015,02,06,02,18,988.56
2015,02,06,02,19,988.57
2015,02,06,02,20,988.51
2015,02,06,02,21,988.48
2015,02,06,02,22,988.43
2015,02,06,02,23,988.39
2015,02,06,02,24,988.39
2015,02,06,02,25,988.41
2015,02,06,02,26,988.48
2015,02,06,02,27,988.57
2015,02,06,02,28,988.63
2015,02,06,02,29,988.65
2015,02,06,02,30,988.63
2015,02,06,02,31,988.67
2015,02,06,02,32,988.71
2015,02,06,02,33,988.76
2015,02,06,02,34,988.76
2015,02,06,02,35,988.76
2015,02,06,02,36,988.76
2015,02,06,02,37,988.77
2015,02,06,02,38,988.79
2015,02,06,02,39,988.81
2015,02,06,02,40,988.86
2015,02,06,02,41,988.87
2015,02,06,02,42,988.89
2015,02,06,02,43,988.90
2015,02,06,02,44,988.94
2015,02,06,02,45,988.98
2015,02,06,02,46,989.02
2015,02,06,02,47,988.98
2015,02,06,02,48,988.92
2015,02,06,02,49,988.85
2015,02,06,02,50,988.74
2015,02,06,02,51,988.67
2015,02,06,02,52,988.60
2015,02,06,02,53,988.56
2015,02,06,02,54,988.60
2015,02,06,02,55,988.62
2015,02,06,02,56,988.63
2015,02,06,02,57,988.67
2015,02,06,02,58,988.71
2015,02,06,02,59,988.77
2015,02,06,03,00,988.78
2015,02,06,03,01,988.79
2015,02,06,03,02,988.87
2015,02,06,03,03,988.89
2015,02,06,03,04,988.88
2015,02,06,03,05,988.84
2015,02,06,03,06,988.81
2015,02,06,03,07,988.86
2015,02,06,03,08,988.85
2015,02,06,03,09,988.82
2015,02,06,03,10,988.78
2015,02,06,03,11,988.78
2015,02,06,03,12,988.82
2015,02,06,03,13,988.78
2015,02,06,03,14,988.75
2015,02,06,03,15,988.72
2015,02,06,03,16,988.73
2015,02,06,03,17,988.77
2015,02,06,03,18,988.78
2015,02,06,03,19,988.78
2015,02,06,03,20,988.82
2015,02,06,03,21,988.79
2015,02,06,03,22,988.79
2015,02,06,03,23,988.79
2015,02,06,03,24,988.78
2015,02,06,03,25,988.74
2015,02,06,03,26,988.68
2015,02,06,03,27,988.65
2015,02,06,03,28,988.58
2015,02,06,03,29,988.51
2015,02,06,03,30,988.53
2015,02,06,03,31,988.51
2015,02,06,03,32,988.54
2015,02,06,03,33,988.50
2015,02,06,03,34,988.44
2015,02,06,03,35,988.41
2015,02,06,03,36,988.37
2015,02,06,03,37,988.32
2015,02,06,03,38,988.32
2015,02,06,03,39,988.31
2015,02,06,03,40,988.28
2015,02,06,03,41,988.30
2015,02,06,03,42,988.36
2015,02,06,03,43,988.38
2015,02,06,03,44,988.37
2015,02,06,03,45,988.41
2015,02,06,03,46,988.39
2015,02,06,03,47,988.37
2015,02,06,03,48,988.28
2015,02,06,03,49,988.16
2015,02,06,03,50,988.11
2015,02,06,03,51,988.10
2015,02,06,03,52,988.08
2015,02,06,03,53,988.09
2015,02,06,03,54,988.13
2015,02,06,03,55,988.18
2015,02,06,03,56,988.18
2015,02,06,03,57,988.18
2015,02,06,03,58,988.18
2015,02,06,03,59,988.18
2015,02,06,04,00,988.18
2015,02,06,04,01,988.20
2015,02,06,04,02,988.25
2015,02,06,05,02,987.42
2015,02,06,05,03,987.40
2015,02,06,05,04,987.38
2015,02,06,05,05,987.31
2015,02,06,05,06,987.25
2015,02,06,05,07,987.23
2015,02,06,05,08,987.22
2015,02,06,05,09,987.20
2015,02,06,05,10,987.19
2015,02,06,05,11,987.21
2015,02,06,05,12,987.28
2015,02,06,05,13,987.36
2015,02,06,05,14,987.42
2015,02,06,05,15,987.42
2015,02,06,05,16,987.44
2015,02,06,05,17,987.41
2015,02,06,05,18,987.37
2015,02,06,05,19,987.38
2015,02,06,05,20,987.40
2015,02,06,05,21,987.42
2015,02,06,05,22,987.45
2015,02,06,05,23,987.50
2015,02,06,05,24,987.54
2015,02,06,05,25,987.54
2015,02,06,05,26,987.57
2015,02,06,05,27,987.61
2015,02,06,05,28,987.59
2015,02,06,05,29,987.59
2015,02,06,05,30,987.61
2015,02,06,05,31,987.59
2015,02,06,05,32,987.56
2015,02,06,05,33,987.51
2015,02,06,05,34,987.47
2015,02,06,05,35,987.47
2015,02,06,05,36,987.49
2015,02,06,05,37,987.49
2015,02,06,05,38,987.47
2015,02,06,05,39,987.48
2015,02,06,05,40,987.52
2015,02,06,05,41,987.54
2015,02,06,05,42,987.55
2015,02,06,05,43,987.56
2015,02,06,05,44,987.54
2015,02,06,05,45,987.53
2015,02,06,05,46,987.49
2015,02,06,05,47,987.47
2015,02,06,05,48,987.46
2015,02,06,05,49,987.42
2015,02,06,05,50,987.39
2015,02,06,05,51,987.37
2015,02,06,05,52,987.36
2015,02,06,05,53,987.30
2015,02,06,05,54,987.22
2015,02,06,05,55,987.19
2015,02,06,05,56,987.18
2015,02,06,05,57,987.17
2015,02,06,05,58,987.09
2015,02,06,05,59,987.03
2015,02,06,06,00,987.02
2015,02,06,06,01,986.97
2015,02,06,06,02,986.92
2015,02,06,06,03,986.89
2015,02,06,06,04,986.83
2015,02,06,06,05,986.79
2015,02,06,06,06,986.79
2015,02,06,06,07,986.81
2015,02,06,06,08,986.81
2015,02,06,06,09,986.78
2015,02,06,06,10,986.73
2015,02,06,06,11,986.66
2015,02,06,06,12,986.65
2015,02,06,06,13,986.73
2015,02,06,06,14,986.80
2015,02,06,06,15,986.83
2015,02,06,06,16,986.84
2015,02,06,06,17,986.85
2015,02,06,06,18,986.80
2015,02,06,06,19,986.75
2015,02,06,06,20,986.72
2015,02,06,06,21,986.71
2015,02,06,06,22,986.73
2015,02,06,06,23,986.74
2015,02,06,06,24,986.70
2015,02,06,06,25,986.61
2015,02,06,06,26,986.63
2015,02,06,06,27,986.56
2015,02,06,06,28,986.48
2015,02,06,06,29,986.41
2015,02,06,06,30,986.40
2015,02,06,06,31,986.41
2015,02,06,06,32,986.39
2015,02,06,06,33,986.38
2015,02,06,06,34,986.33
2015,02,06,06,35,986.26
2015,02,06,06,36,986.22
2015,02,06,06,37,986.23
2015,02,06,06,38,986.24
2015,02,06,06,39,986.23
2015,02,06,06,40,986.25
2015,02,06,06,41,986.27
2015,02,06,06,42,986.26
2015,02,06,06,43,986.22
2015,02,06,06,44,986.21
2015,02,06,06,45,986.17
2015,02,06,06,46,986.15
2015,02,06,06,47,986.11
2015,02,06,06,48,986.02
2015,02,06,06,49,985.97
2015,02,06,06,50,985.92
2015,02,06,06,51,985.87
2015,02,06,06,52,985.84
2015,02,06,06,53,985.81
2015,02,06,06,54,985.78
2015,02,06,06,55,985.70
2015,02,06,06,56,985.67
2015,02,06,06,57,985.74
2015,02,06,06,58,985.78
2015,02,06,06,59,985.78
2015,02,06,07,00,985.79
2015,02,06,07,01,985.81
2015,02,06,07,02,985.83
2015,02,06,07,03,985.87
2015,02,06,07,04,985.90
2015,02,06,07,05,985.89
2015,02,06,07,06,985.90
2015,02,06,07,07,985.89
2015,02,06,07,08,985.91
2015,02,06,07,09,985.94
2015,02,06,07,10,985.95
2015,02,06,07,11,985.91
2015,02,06,07,12,985.91
2015,02,06,07,13,985.92
2015,02,06,07,14,985.93
2015,02,06,07,15,985.91
2015,02,06,07,16,985.93
2015,02,06,07,17,985.95
2015,02,06,07,18,985.92
2015,02,06,07,19,985.87
2015,02,06,07,20,985.84
2015,02,06,07,21,985.80
2015,02,06,07,22,985.77
2015,02,06,07,23,985.76
2015,02,06,07,24,985.77
2015,02,06,07,25,985.76
2015,02,06,07,26,985.77
2015,02,06,07,27,985.73
2015,02,06,07,28,985.72
2015,02,06,07,29,985.78
2015,02,06,07,30,985.84
2015,02,06,07,31,985.83
2015,02,06,07,32,985.82
2015,02,06,07,33,985.81
2015,02,06,07,34,985.85
2015,02,06,07,35,985.87
2015,02,06,07,36,985.91
2015,02,06,07,37,985.91
2015,02,06,07,38,985.92
2015,02,06,07,39,985.96
2015,02,06,07,40,985.99
2015,02,06,07,41,986.02
2015,02,06,07,42,986.02
2015,02,06,07,43,986.07
2015,02,06,07,44,986.18
2015,02,06,07,45,986.22
2015,02,06,07,46,986.22
2015,02,06,07,47,986.23
2015,02,06,07,48,986.24
2015,02,06,07,49,986.23
2015,02,06,07,50,986.24
2015,02,06,07,51,986.23
2015,02,06,07,52,986.25
2015,02,06,07,53,986.24
2015,02,06,07,54,986.19
2015,02,06,07,55,986.15
2015,02,06,07,56,986.12
2015,02,06,07,57,986.04
2015,02,06,07,58,985.95
2015,02,06,07,59,985.90
2015,02,06,08,00,985.88
2015,02,06,08,01,985.88
2015,02,06,08,02,985.89
2015,02,06,08,03,985.90
2015,02,06,08,04,985.84
2015,02,06,08,05,985.74
2015,02,06,08,06,985.64
2015,02,06,08,07,985.56
2015,02,06,08,08,985.54
2015,02,06,08,09,985.55
2015,02,06,08,10,985.59
2015,02,06,08,11,985.61
2015,02,06,08,12,985.62
2015,02,06,08,13,985.66
2015,02,06,08,14,985.70
2015,02,06,08,15,985.73
2015,02,06,08,16,985.67
2015,02,06,08,17,985.58
2015,02,06,08,18,985.49
2015,02,06,08,19,985.45
2015,02,06,08,20,985.42
2015,02,06,08,21,985.48
2015,02,06,08,22,985.58
2015,02,06,08,23,985.67
2015,02,06,08,24,985.72
2015,02,06,08,25,985.74
2015,02,06,08,26,985.70
2015,02,06,08,27,985.61
2015,02,06,08,28,985.57
2015,02,06,08,29,985.63
2015,02,06,08,30,985.78
2015,02,06,08,31,985.84
2015,02,06,08,32,985.80
2015,02,06,08,33,985.77
2015,02,06,08,34,985.70
2015,02,06,08,35,985.66
2015,02,06,08,36,985.70
2015,02,06,08,37,985.74
2015,02,06,08,38,985.77
2015,02,06,08,39,985.79
2015,02,06,08,40,985.74
2015,02,06,08,41,985.76
2015,02,06,08,42,985.84
2015,02,06,08,43,985.92
2015,02,06,08,44,985.94
2015,02,06,08,45,985.91
2015,02,06,08,46,985.92
2015,02,06,08,47,985.96
2015,02,06,08,48,985.99
2015,02,06,08,49,986.02
2015,02,06,08,50,986.01
2015,02,06,08,51,985.97
2015,02,06,08,52,985.95
2015,02,06,08,53,986.00
2015,02,06,08,54,986.06
2015,02,06,08,55,986.02
2015,02,06,08,56,986.01
2015,02,06,08,57,985.98
2015,02,06,08,58,985.99
2015,02,06,08,59,986.03
2015,02,06,09,00,986.06
2015,02,06,09,01,986.13
2015,02,06,09,02,986.22
2015,02,06,09,03,986.20
2015,02,06,09,04,986.15
2015,02,06,09,05,986.12
2015,02,06,09,06,986.08
2015,02,06,09,07,986.07
2015,02,06,09,08,986.03
2015,02,06,09,09,985.97
2015,02,06,09,10,985.96
2015,02,06,09,11,985.99
2015,02,06,09,12,986.04
2015,02,06,09,13,986.08
2015,02,06,09,14,986.13
2015,02,06,09,15,986.22
2015,02,06,09,16,986.22
2015,02,06,09,17,986.19
2015,02,06,09,18,986.12
2015,02,06,09,19,986.12
2015,02,06,09,20,986.18
2015,02,06,09,21,986.18
2015,02,06,09,22,986.21
2015,02,06,09,23,986.24
2015,02,06,09,24,986.25
2015,02,06,09,25,986.26
2015,02,06,09,26,986.26
2015,02,06,09,27,986.37
2015,02,06,09,28,986.42
2015,02,06,09,29,986.34
2015,02,06,09,30,986.29
2015,02,06,09,31,986.22
2015,02,06,09,32,986.15
2015,02,06,09,33,986.05
2015,02,06,09,34,985.96
2015,02,06,09,35,985.91
2015,02,06,09,36,986.03
2015,02,06,09,37,986.22
2015,02,06,09,38,986.21
2015,02,06,09,39,986.20
2015,02,06,09,40,986.21
2015,02,06,09,41,986.18
2015,02,06,09,42,986.18
2015,02,06,09,43,986.20
2015,02,06,09,44,986.26
2015,02,06,09,45,986.33
2015,02,06,09,46,986.33
2015,02,06,09,47,986.30
2015,02,06,09,48,986.36
2015,02,06,09,49,986.46
2015,02,06,09,50,986.55
2015,02,06,09,51,986.60
2015,02,06,09,52,986.63
2015,02,06,09,53,986.68
2015,02,06,09,54,986.75
2015,02,06,09,55,986.79
2015,02,06,09,56,986.81
2015,02,06,09,57,986.88
2015,02,06,09,58,986.95
2015,02,06,09,59,986.98
2015,02,06,10,00,986.92
2015,02,06,10,01,986.92
2015,02,06,10,02,986.96
2015,02,06,10,03,986.97
2015,02,06,10,04,987.06
2015,02,06,10,05,987.18
2015,02,06,10,06,987.20
2015,02,06,10,07,987.19
2015,02,06,10,08,987.12
2015,02,06,10,09,987.03
2015,02,06,10,10,987.02
2015,02,06,10,11,987.05
2015,02,06,10,12,987.16
2015,02,06,10,13,987.25
2015,02,06,10,14,987.33
2015,02,06,10,15,987.29
2015,02,06,10,16,987.24
2015,02,06,10,17,987.15
2015,02,06,10,18,987.12
2015,02,06,10,19,987.20
2015,02,06,10,20,987.26
2015,02,06,10,21,987.23
2015,02,06,10,22,987.22
2015,02,06,10,23,987.19
2015,02,06,10,24,987.13
2015,02,06,10,25,987.01
2015,02,06,10,26,986.84
2015,02,06,10,27,986.72
2015,02,06,10,28,986.70
2015,02,06,10,29,986.76
2015,02,06,10,30,986.80
2015,02,06,10,31,986.69
2015,02,06,10,32,986.63
2015,02,06,10,33,986.68
2015,02,06,10,34,986.81
2015,02,06,10,35,987.02
2015,02,06,10,36,987.15
2015,02,06,10,37,987.21
2015,02,06,10,38,987.23
2015,02,06,10,39,987.21
2015,02,06,10,40,987.18
2015,02,06,10,41,987.22
2015,02,06,10,42,987.28
2015,02,06,10,43,987.32
2015,02,06,10,44,987.39
2015,02,06,10,45,987.44
2015,02,06,10,46,987.42
2015,02,06,10,47,987.36
2015,02,06,10,48,987.33
2015,02,06,10,49,987.30
2015,02,06,10,50,987.31
2015,02,06,10,51,987.36
2015,02,06,10,52,987.42
2015,02,06,10,53,987.48
2015,02,06,10,54,987.50
2015,02,06,10,55,987.49
2015,02,06,10,56,987.53
2015,02,06,10,57,987.51
2015,02,06,10,58,987.52
2015,02,06,10,59,987.53
2015,02,06,11,00,987.50
2015,02,06,11,01,987.52
2015,02,06,11,02,987.61
2015,02,06,11,03,987.60
2015,02,06,11,04,987.58
2015,02,06,11,05,987.62
2015,02,06,11,06,987.65
2015,02,06,11,07,987.68
2015,02,06,11,08,987.67
2015,02,06,11,09,987.59
2015,02,06,11,10,987.59
2015,02,06,11,11,987.62
2015,02,06,11,12,987.64
2015,02,06,11,13,987.67
2015,02,06,11,14,987.72
2015,02,06,11,15,987.74
2015,02,06,11,16,987.73
2015,02,06,11,17,987.72
2015,02,06,11,18,987.75
2015,02,06,11,19,987.77
2015,02,06,11,20,987.75
2015,02,06,11,21,987.77
2015,02,06,11,22,987.74
2015,02,06,11,23,987.73
2015,02,06,11,24,987.71
2015,02,06,11,25,987.71
2015,02,06,11,26,987.70
2015,02,06,11,27,987.67
2015,02,06,11,28,987.70
2015,02,06,11,29,987.75
2015,02,06,11,30,987.78
2015,02,06,11,31,987.77
2015,02,06,11,32,987.73
2015,02,06,11,33,987.69
2015,02,06,11,34,987.66
2015,02,06,11,35,987.71
2015,02,06,11,36,987.73
2015,02,06,11,37,987.77
2015,02,06,11,38,987.71
2015,02,06,11,39,987.63
2015,02,06,11,40,987.59
2015,02,06,11,41,987.54
2015,02,06,11,42,987.53
2015,02,06,11,43,987.51
2015,02,06,11,44,987.49
2015,02,06,11,45,987.44
2015,02,06,11,46,987.43
2015,02,06,11,47,987.36
2015,02,06,11,48,987.27
2015,02,06,11,49,987.26
2015,02,06,11,50,987.22
2015,02,06,11,51,987.23
2015,02,06,11,52,987.33
2015,02,06,11,53,987.39
2015,02,06,11,54,987.36
2015,02,06,11,55,987.30
2015,02,06,11,56,987.21
2015,02,06,11,57,987.14
2015,02,06,11,58,987.10
2015,02,06,11,59,987.07
2015,02,06,12,00,987.03
2015,02,06,12,01,987.04
2015,02,06,12,02,987.07
2015,02,06,12,03,987.08
2015,02,06,12,04,987.02
2015,02,06,12,05,987.00
2015,02,06,12,06,987.00
2015,02,06,12,07,987.01
2015,02,06,12,08,987.02
2015,02,06,12,09,987.01
2015,02,06,12,10,987.05
2015,02,06,12,11,987.10
2015,02,06,12,12,987.11
2015,02,06,12,13,987.15
2015,02,06,12,14,987.19
2015,02,06,12,15,987.18
2015,02,06,12,16,987.20
2015,02,06,12,17,987.20
2015,02,06,12,18,987.18
2015,02,06,12,19,987.15
2015,02,06,12,20,987.20
2015,02,06,12,21,987.20
2015,02,06,12,22,987.21
2015,02,06,12,23,987.24
2015,02,06,12,24,987.26
2015,02,06,12,25,987.21
2015,02,06,12,26,987.16
2015,02,06,12,27,987.13
2015,02,06,12,28,987.14
2015,02,06,12,29,987.17
2015,02,06,12,30,987.19
2015,02,06,12,31,987.23
2015,02,06,12,32,987.25
2015,02,06,12,33,987.31
2015,02,06,12,34,987.36
2015,02,06,12,35,987.40
2015,02,06,12,36,987.39
2015,02,06,12,37,987.37
2015,02,06,12,38,987.35
2015,02,06,12,39,987.31
2015,02,06,12,40,987.34
2015,02,06,12,41,987.32
2015,02,06,12,42,987.27
2015,02,06,12,43,987.29
2015,02,06,12,44,987.36
2015,02,06,12,45,987.40
2015,02,06,12,46,987.41
2015,02,06,12,47,987.44
2015,02,06,12,48,987.44
2015,02,06,12,49,987.45
2015,02,06,12,50,987.49
2015,02,06,12,51,987.53
2015,02,06,12,52,987.53
2015,02,06,12,53,987.57
2015,02,06,12,54,987.55
2015,02,06,12,55,987.50
2015,02,06,12,56,987.45
2015,02,06,12,57,987.40
2015,02,06,12,58,987.44
2015,02,06,12,59,987.53
2015,02,06,13,00,987.58
2015,02,06,13,01,987.62
2015,02,06,13,02,987.62
2015,02,06,13,03,987.59
2015,02,06,13,04,987.62
2015,02,06,13,05,987.58
2015,02,06,13,06,987.61
2015,02,06,13,07,987.62
2015,02,06,13,08,987.64
2015,02,06,13,09,987.63
2015,02,06,13,10,987.60
2015,02,06,13,11,987.57
2015,02,06,13,12,987.55
2015,02,06,13,13,987.54
2015,02,06,13,14,987.61
2015,02,06,13,15,987.63
2015,02,06,13,16,987.66
2015,02,06,13,17,987.62
2015,02,06,13,18,987.58
2015,02,06,13,19,987.63
2015,02,06,13,20,987.66
2015,02,06,13,21,987.62
2015,02,06,13,22,987.59
2015,02,06,13,23,987.65
2015,02,06,13,24,987.68
2015,02,06,13,25,987.72
2015,02,06,13,26,987.76
2015,02,06,13,27,987.82
2015,02,06,13,28,987.85
2015,02,06,13,29,987.88
2015,02,06,13,30,987.87
2015,02,06,13,31,987.84
2015,02,06,13,32,987.84
2015,02,06,13,33,987.82
2015,02,06,13,34,987.78
2015,02,06,13,35,987.77
2015,02,06,13,36,987.74
2015,02,06,13,37,987.75
2015,02,06,13,38,987.79
2015,02,06,13,39,987.81
2015,02,06,13,40,987.80
2015,02,06,13,41,987.78
2015,02,06,13,42,987.76
2015,02,06,13,43,987.71
2015,02,06,13,44,987.72
2015,02,06,13,45,987.74
2015,02,06,13,46,987.76
2015,02,06,13,47,987.81
2015,02,06,13,48,987.81
2015,02,06,13,49,987.82
2015,02,06,13,50,987.85
2015,02,06,13,51,987.89
2015,02,06,13,52,987.90
2015,02,06,13,53,987.86
2015,02,06,13,54,987.79
2015,02,06,13,55,987.76
2015,02,06,13,56,987.81
2015,02,06,13,57,987.81
2015,02,06,13,58,987.81
2015,02,06,13,59,987.81
2015,02,06,14,00,987.81
2015,02,06,14,01,987.83
2015,02,06,14,02,987.89
2015,02,06,14,03,987.93
2015,02,06,14,04,987.99
2015,02,06,14,05,988.00
2015,02,06,14,06,987.99
2015,02,06,14,07,988.02
2015,02,06,14,08,988.06
2015,02,06,14,09,988.07
2015,02,06,14,10,988.04
2015,02,06,14,11,988.02
2015,02,06,14,12,988.06
2015,02,06,14,13,988.11
2015,02,06,14,14,988.17
2015,02,06,14,15,988.15
2015,02,06,14,16,988.15
2015,02,06,14,17,988.18
2015,02,06,14,18,988.23
2015,02,06,14,19,988.16
2015,02,06,14,20,988.11
2015,02,06,14,21,988.09
2015,02,06,14,22,988.05
2015,02,06,14,23,988.05
2015,02,06,14,24,988.00
2015,02,06,14,25,987.94
2015,02,06,14,26,988.02
2015,02,06,14,27,988.06
2015,02,06,14,28,988.09
2015,02,06,14,29,988.12
2015,02,06,14,30,988.16
2015,02,06,14,31,988.19
2015,02,06,14,32,988.21
2015,02,06,14,33,988.17
2015,02,06,14,34,988.21
2015,02,06,14,35,988.32
2015,02,06,14,36,988.34
2015,02,06,14,37,988.38
2015,02,06,14,38,988.34
2015,02,06,14,39,988.30
2015,02,06,14,40,988.26
2015,02,06,14,41,988.27
2015,02,06,14,42,988.27
2015,02,06,14,43,988.31
2015,02,06,14,44,988.29
2015,02,06,14,45,988.33
2015,02,06,14,46,988.36
2015,02,06,14,47,988.41
2015,02,06,14,48,988.43
2015,02,06,14,49,988.38
2015,02,06,14,50,988.37
2015,02,06,14,51,988.44
2015,02,06,14,52,988.48
2015,02,06,14,53,988.45
2015,02,06,14,54,988.45
2015,02,06,14,55,988.42
2015,02,06,14,56,988.33
2015,02,06,14,57,988.28
2015,02,06,14,58,988.32
2015,02,06,14,59,988.42
2015,02,06,15,00,988.44
2015,02,06,15,01,988.51
2015,02,06,15,02,988.52
2015,02,06,15,03,988.44
2015,02,06,15,04,988.42
2015,02,06,15,05,988.45
2015,02,06,15,06,988.54
2015,02,06,15,07,988.59
2015,02,06,15,08,988.56
2015,02,06,15,09,988.46
2015,02,06,15,10,988.39
2015,02,06,15,11,988.39
2015,02,06,15,12,988.41
2015,02,06,15,13,988.48
2015,02,06,15,14,988.56
2015,02,06,15,15,988.61
2015,02,06,15,16,988.66
2015,02,06,15,17,988.66
2015,02,06,15,18,988.64
2015,02,06,15,19,988.60
2015,02,06,15,20,988.61
2015,02,06,15,21,988.59
2015,02,06,15,22,988.60
2015,02,06,15,23,988.63
2015,02,06,15,24,988.66
2015,02,06,15,25,988.67
2015,02,06,15,26,988.70
2015,02,06,15,27,988.71
2015,02,06,15,28,988.69
2015,02,06,15,29,988.70
2015,02,06,15,30,988.72
2015,02,06,15,31,988.73
2015,02,06,15,32,988.78
2015,02,06,15,33,988.84
2015,02,06,15,34,988.86
2015,02,06,15,35,988.86
2015,02,06,15,36,988.85
2015,02,06,15,37,988.83
2015,02,06,15,38,988.84
2015,02,06,15,39,988.85
2015,02,06,15,40,988.83
2015,02,06,15,41,988.85
2015,02,06,15,42,988.86
2015,02,06,15,43,988.80
2015,02,06,15,44,988.84
2015,02,06,15,45,988.86
2015,02,06,15,46,988.89
2015,02,06,15,47,988.97
2015,02,06,15,48,989.01
2015,02,06,15,49,989.03
2015,02,06,15,50,989.02
2015,02,06,15,51,989.00
2015,02,06,15,52,988.99
2015,02,06,15,53,988.95
2015,02,06,15,54,988.93
2015,02,06,15,55,988.94
2015,02,06,15,56,989.00
2015,02,06,15,57,989.11
2015,02,06,15,58,989.13
2015,02,06,15,59,989.14
2015,02,06,16,00,989.16
2015,02,06,16,01,989.17
2015,02,06,16,02,989.22
2015,02,06,16,03,989.27
2015,02,06,16,04,989.27
2015,02,06,16,05,989.28
2015,02,06,16,06,989.28
2015,02,06,16,07,989.20
2015,02,06,16,08,989.11
2015,02,06,16,09,989.06
2015,02,06,16,10,989.08
2015,02,06,16,11,989.16
2015,02,06,16,12,989.22
2015,02,06,16,13,989.18
2015,02,06,16,14,989.14
2015,02,06,16,15,989.17
2015,02,06,16,16,989.21
2015,02,06,16,17,989.22
2015,02,06,16,18,989.20
2015,02,06,16,19,989.19
2015,02,06,16,20,989.17
2015,02,06,16,21,989.18
2015,02,06,16,22,989.12
2015,02,06,16,23,989.10
2015,02,06,16,24,989.11
2015,02,06,16,25,989.14
2015,02,06,16,26,989.18
2015,02,06,16,27,989.24
2015,02,06,16,28,989.25
2015,02,06,16,29,989.20
2015,02,06,16,30,989.20
2015,02,06,16,31,989.20
2015,02,06,16,32,989.20
2015,02,06,16,33,989.22
2015,02,06,16,34,989.25
2015,02,06,16,35,989.22
2015,02,06,16,36,989.27
2015,02,06,16,37,989.27
2015,02,06,16,38,989.28
2015,02,06,16,39,989.29
2015,02,06,16,40,989.27
2015,02,06,16,41,989.27
2015,02,06,16,42,989.24
2015,02,06,16,43,989.17
2015,02,06,16,44,989.20
2015,02,06,16,45,989.21
2015,02,06,16,46,989.21
2015,02,06,16,47,989.16
2015,02,06,16,48,989.18
2015,02,06,16,49,989.24
2015,02,06,16,50,989.28
2015,02,06,16,51,989.30
2015,02,06,16,52,989.28
2015,02,06,16,53,989.22
2015,02,06,16,54,989.21
2015,02,06,16,55,989.25
2015,02,06,16,56,989.30
2015,02,06,16,57,989.26
2015,02,06,16,58,989.15
2015,02,06,16,59,989.14
2015,02,06,17,00,989.17
2015,02,06,17,01,989.20
2015,02,06,17,02,989.22
2015,02,06,17,03,989.28
2015,02,06,17,04,989.29
2015,02,06,17,05,989.27
2015,02,06,17,06,989.29
2015,02,06,17,07,989.34
2015,02,06,17,08,989.37
2015,02,06,17,09,989.38
2015,02,06,17,10,989.40
2015,02,06,17,11,989.39
2015,02,06,17,12,989.36
2015,02,06,17,13,989.34
2015,02,06,17,14,989.37
2015,02,06,17,15,989.37
2015,02,06,17,16,989.38
2015,02,06,17,17,989.40
2015,02,06,17,18,989.41
2015,02,06,17,19,989.43
2015,02,06,17,20,989.41
2015,02,06,17,21,989.45
2015,02,06,17,22,989.46
2015,02,06,17,23,989.45
2015,02,06,17,24,989.46
2015,02,06,17,25,989.44
2015,02,06,17,26,989.44
2015,02,06,17,27,989.44
2015,02,06,17,28,989.42
2015,02,06,17,29,989.38
2015,02,06,17,30,989.41
2015,02,06,17,31,989.45
2015,02,06,17,32,989.49
2015,02,06,17,33,989.54
2015,02,06,17,34,989.53
2015,02,06,17,35,989.50